Flag for U.S.A. Weather past 2 weeks in Memphis, Tennessee, U.S.A.

Now
75 °F

Mostly cloudy.


Feels Like: 76 °F
Forecast: 70 / 81 °F
Wind: 7 mph from Southwest

Location: Memphis International Airport

Current Time: May 25, 2015 at 11:38:12 AM

Latest Report: May 25, 2015 at 10:54 AM


Visibility: 10 mi

Pressure: 30.08 "Hg

Humidity: 79%

Dew point: 68 °F

Location of MemphisLocation

Historic Weather in Memphis — Graph

°F

Memphis temperature yesterday

Maximum temperature yesterday: 87 °F (at 2:54 PM)
Minimum temperature yesterday: 70 °F (at 10:54 PM)
Average temperature yesterday: 76 °F

Past Weeks' High & Low Weather Summary

 TemperatureHumidityPressure
High87 °F (May 10, 3:54 PM)94% (May 19, 6:00 AM)30.32 "Hg (May 19, 6:00 AM)
Low49 °F (May 22, 4:54 AM)29% (May 13, 3:54 PM)29.93 "Hg (May 20, 12:54 PM)
Average71 °F68%30.11 "Hg
* Reported May 10 9:54 AM — May 25 9:54 AM, Memphis, Weather by CustomWeather, © 2015

Note: Actual official high and low records may vary slightly from our data, if they occured in-between our weather recording intervals... More about our weather records

Advertising

Memphis weather history for previous 24 hours

 ConditionsComfort  
Time TempWeatherWind HumidityBarometerVisibility
9:54 AM
Mon, May 25
74 °FOvercast.9 mph82%30.07 "Hg10 mi
9:01 AM72 °FMore clouds than sun.7 mph88%30.08 "Hg10 mi
7:54 AM71 °FPartly sunny.6 mph87%30.05 "Hg10 mi
6:54 AM70 °FMostly cloudy.7 mph87%30.04 "Hg10 mi
5:54 AM69 °FLight rain. Overcast.9 mph90%30.03 "Hg10 mi
4:54 AM69 °FLight rain. Mostly cloudy.9 mph90%30.02 "Hg10 mi
3:54 AM69 °FMostly cloudy.6 mph90%30.01 "Hg10 mi
2:54 AM70 °FLight rain. Mostly cloudy.12 mph87%30.02 "Hg10 mi
1:54 AM70 °FLight rain. Passing clouds.10 mph90%30.01 "Hg10 mi
12:54 AM70 °FLight rain. Mostly cloudy.8 mph90%30.03 "Hg8 mi
11:54 PM
Sun, May 24
70 °FThunderstorms. Mostly cloudy.5 mph90%30.02 "Hg7 mi
10:54 PM70 °FLight rain. Mostly cloudy.9 mph87%30.00 "Hg10 mi
9:54 PM71 °FThunderstorms. Mostly cloudy.14 mph87%30.01 "Hg8 mi
8:54 PM71 °FMostly cloudy.14 mph87%30.00 "Hg10 mi
7:58 PM75 °FThunderstorms. Cloudy.17 mph83%30.01 "Hg10 mi
6:54 PM74 °FCloudy.7 mph85%29.97 "Hg10 mi
6:04 PM73 °FThunderstorms. Mostly cloudy.20 mph78%29.99 "Hg2 mi
6:01 PM73 °FThunderstorms. Mostly cloudy.20 mph74%29.99 "Hg10 mi
4:54 PM86 °FBroken clouds.17 mph57%29.95 "Hg10 mi
3:54 PM86 °FBroken clouds.17 mph53%29.98 "Hg10 mi
2:54 PM87 °FPartly sunny.16 mph51%30.00 "Hg10 mi
1:54 PM85 °FPartly sunny.17 mph55%30.03 "Hg10 mi
12:54 PM85 °FPartly sunny.18 mph55%30.06 "Hg10 mi
11:54 AM84 °FBroken clouds.18 mph55%30.07 "Hg10 mi
Weather by CustomWeather, © 2015

See weather overviewHow to use our weather pages